Aérodrome :
LOGIN :

S'inscrire | Disclaimer

   EN    FR    IT 

 










Légende :    VFR   VFR Marginal   IFR   IFR Intensif   IFR Très Intensif
Visi : 
Plafond : 
>= 8 km
>= 3000ft
5 à 8 km
1000 à 3000 ft
1500m à 5 km
500 à 1000 ft
800 à 1500m
200 à 500 ft
< 800m
< 200 ft
Symboles :   Orages  Brouillard  Fortes neiges  Fortes précipitations  Vent > 20 kt
SIGMETs :   Divers  Orages  Givrage  Turbulence  Onde Orograph.  Cendres Volcan.







- Altitude de l'aérodrome : 978 ft
- Code IATA : LNZ


LOWL - Linz

DERNIER METAR :
  • 210750Z 09007KT 060V130 CAVOK 15/M00 Q1023 NOSIG

METARs EXPIRÉS :
  • 210720Z 12006KT 080V150 CAVOK 13/00 Q1023 NOSIG
  • 210650Z 14003KT 110V180 CAVOK 10/02 Q1023 NOSIG
  • 210620Z VRB02KT CAVOK 09/01 Q1023 NOSIG
  • 210550Z VRB01KT CAVOK 06/01 Q1023 NOSIG
  • 210520Z VRB01KT CAVOK 05/00 Q1023 NOSIG
  • 210450Z 31002KT CAVOK 04/M01 Q1023 NOSIG

TAF TAF LOWL
Valide du 21 à 06h jusqu'au 22 à 06h UTC


210515Z 2106/2206 09004KT CAVOK TX23/2115Z TN06/2204Z
BECMG 2108/2110 09010KT
BECMG 2117/2120 09004KT
Pas de NOTAMs connus pour ce terrain.



MET'MAP, la Météo Aéronautique d'un coup d'oeil ! - Copyright ORBIFLY Décembre 2007 - Disclaimer

ORBIFLY MET'MAP TEAM :

Programmation & Développement : Alexandra Zaïnal
Conception & Développement : Baudouin d'Aumeries
Co-Programmation & Développement : Marc-Olivier Méhu
Soutien technique & logistique : Manuel Goepfert

Contact : metmap@orbifly.com




SOURCES & CREDITS :

   NOAA